{"data":{"norad_id":47227,"intl_designator":"2020-091A","name":"GONETS-M 20","alt_names":[],"object_type":"PAYLOAD","status":"ACTIVE","operator":null,"country":"CIS","launch_date":"2020-12-03","launch_site_code":"PLMSC","launch_vehicle":null,"mission":null,"orbit_class":"UNKNOWN","rcs_meters":null,"size_class":null,"mass_kg":null,"dimensions":null,"purposes":[],"wikipedia_slug":null,"has_3d_model":false,"image_url":null,"decayed_at":null,"tle_current":{"epoch":"2026-05-25T03:28:43.514112Z","epoch_age_seconds":72905,"freshness":"FRESH","line1":"1 47227U 20091A   26145.14494808  .00000049  00000+0  28149-3 0  9999","line2":"2 47227  82.5036 316.7634 0020201 229.0375 130.8957 12.42892971248216","mean_motion":12.42892971,"eccentricity":0.0020201,"inclination_deg":82.5036,"raan_deg":316.7634,"arg_perigee_deg":229.0375,"mean_anomaly_deg":130.8957,"bstar":0.00028149,"rev_number":24821,"period_min":115.85872907797,"perigee_km":1478.4600773525,"apogee_km":1510.2665531261,"semimajor_km":7872.5003152393,"source":"CELESTRAK","updated_at":"2026-05-25T13:37:56.398497Z"}}}